• în România
  • Lista ţărilor
  • Pe 7 zile
  • Temperatura apei
  • Hartă satelitară
  • Meteo pe hartă
  • Widget-uri
  • user-avatar
    Intrare

    Meteo pe oră la Ondjiwa

    Astăzi, 24 Iulie, Luni

    Timp Temperatura Precipitaţii Vânt Presiune Umiditate
    00:00 +17°C° 0 mm 2 m/s 669 mmHg 18%
    01:00 +16°C° 0 mm 2 m/s 669 mmHg 19%
    02:00 +15°C° 0 mm 2 m/s 668 mmHg 19%
    03:00 +15°C° 0 mm 2 m/s 668 mmHg 20%
    04:00 +14°C° 0 mm 2 m/s 668 mmHg 21%
    05:00 +13°C° 0 mm 2 m/s 668 mmHg 21%
    06:00 +13°C° 0 mm 1 m/s 669 mmHg 22%
    07:00 +13°C° 0 mm 1 m/s 669 mmHg 23%
    08:00 +16°C° 0 mm 2 m/s 670 mmHg 19%
    09:00 +20°C° 0 mm 2 m/s 671 mmHg 15%
    10:00 +25°C° 0 mm 2 m/s 672 mmHg 12%
    11:00 +27°C° 0 mm 2 m/s 672 mmHg 10%
    12:00 +29°C° 0 mm 2 m/s 672 mmHg 9%
    13:00 +32°C° 0 mm 2 m/s 672 mmHg 8%
    14:00 +31°C° 0 mm 1 m/s 671 mmHg 8%
    15:00 +31°C° 0 mm 1 m/s 671 mmHg 8%
    16:00 +31°C° 0 mm 1 m/s 670 mmHg 8%
    17:00 +28°C° 0 mm 1 m/s 670 mmHg 9%
    18:00 +25°C° 0 mm 2 m/s 669 mmHg 11%
    19:00 +21°C° 0 mm 2 m/s 669 mmHg 13%
    20:00 +20°C° 0 mm 2 m/s 669 mmHg 14%
    21:00 +19°C° 0 mm 2 m/s 670 mmHg 14%
    22:00 +19°C° 0 mm 2 m/s 670 mmHg 15%
    23:00 +18°C° 0 mm 2 m/s 670 mmHg 16%

    Mâine, 25 Iulie, Marţi

    Timp Temperatura Precipitaţii Vânt Presiune Umiditate
    00:00 +17°C° 0 mm 2 m/s 670 mmHg 16%
    01:00 +17°C° 0 mm 2 m/s 670 mmHg 17%
    02:00 +16°C° 0 mm 2 m/s 669 mmHg 18%
    03:00 +15°C° 0 mm 2 m/s 669 mmHg 19%
    04:00 +15°C° 0 mm 2 m/s 669 mmHg 20%
    05:00 +14°C° 0 mm 2 m/s 669 mmHg 21%
    06:00 +14°C° 0 mm 2 m/s 669 mmHg 22%
    07:00 +14°C° 0 mm 2 m/s 670 mmHg 23%
    08:00 +17°C° 0 mm 2 m/s 671 mmHg 19%
    09:00 +21°C° 0 mm 3 m/s 672 mmHg 16%
    10:00 +26°C° 0 mm 3 m/s 673 mmHg 12%
    11:00 +28°C° 0 mm 3 m/s 672 mmHg 11%
    12:00 +30°C° 0 mm 3 m/s 672 mmHg 10%
    13:00 +32°C° 0 mm 2 m/s 671 mmHg 9%
    14:00 +32°C° 0 mm 2 m/s 670 mmHg 8%
    15:00 +32°C° 0 mm 2 m/s 670 mmHg 8%
    16:00 +32°C° 0 mm 1 m/s 669 mmHg 8%
    17:00 +29°C° 0 mm 2 m/s 669 mmHg 9%
    18:00 +26°C° 0 mm 2 m/s 669 mmHg 11%
    19:00 +23°C° 0 mm 2 m/s 668 mmHg 13%
    20:00 +21°C° 0 mm 3 m/s 669 mmHg 14%
    21:00 +19°C° 0 mm 3 m/s 669 mmHg 15%
    22:00 +18°C° 0 mm 3 m/s 669 mmHg 15%
    23:00 +18°C° 0 mm 2 m/s 669 mmHg 16%

    Poimâine, 26 Iulie, Miercuri

    Timp Temperatura Precipitaţii Vânt Presiune Umiditate
    00:00 +17°C° 0 mm 2 m/s 668 mmHg 17%
    01:00 +16°C° 0 mm 2 m/s 668 mmHg 17%
    02:00 +16°C° 0 mm 2 m/s 668 mmHg 18%
    03:00 +15°C° 0 mm 2 m/s 668 mmHg 18%
    04:00 +13°C° 0 mm 3 m/s 668 mmHg 19%
    05:00 +14°C° 0 mm 2 m/s 668 mmHg 20%
    06:00 +14°C° 0 mm 2 m/s 669 mmHg 21%
    07:00 +13°C° 0 mm 2 m/s 669 mmHg 23%
    08:00 +17°C° 0 mm 2 m/s 670 mmHg 20%
    09:00 +21°C° 0 mm 3 m/s 671 mmHg 17%
    10:00 +26°C° 0 mm 4 m/s 672 mmHg 14%
    11:00 +28°C° 0 mm 3 m/s 671 mmHg 12%
    12:00 +30°C° 0 mm 3 m/s 671 mmHg 10%
    13:00 +33°C° 0 mm 3 m/s 670 mmHg 8%
    14:00 +33°C° 0 mm 3 m/s 670 mmHg 8%
    15:00 +32°C° 0 mm 2 m/s 669 mmHg 7%
    16:00 +32°C° 0 mm 2 m/s 669 mmHg 7%
    17:00 +29°C° 0 mm 2 m/s 669 mmHg 9%
    18:00 +26°C° 0 mm 2 m/s 668 mmHg 11%
    19:00 +23°C° 0 mm 2 m/s 668 mmHg 13%
    20:00 +21°C° 0 mm 2 m/s 668 mmHg 14%
    21:00 +20°C° 0 mm 2 m/s 669 mmHg 16%
    22:00 +18°C° 0 mm 2 m/s 669 mmHg 17%
    23:00 +18°C° 0 mm 2 m/s 669 mmHg 18%

    27 Iulie, Joi

    Timp Temperatura Precipitaţii Vânt Presiune Umiditate
    00:00 +17°C° 0 mm 2 m/s 668 mmHg 20%
    01:00 +17°C° 0 mm 3 m/s 668 mmHg 21%
    02:00 +16°C° 0 mm 3 m/s 668 mmHg 22%
    03:00 +16°C° 0 mm 3 m/s 668 mmHg 24%
    04:00 +14°C° 0 mm 3 m/s 668 mmHg 25%
    05:00 +14°C° 0 mm 3 m/s 668 mmHg 27%
    06:00 +14°C° 0 mm 3 m/s 669 mmHg 28%
    07:00 +13°C° 0 mm 3 m/s 669 mmHg 30%
    08:00 +18°C° 0 mm 4 m/s 670 mmHg 25%
    09:00 +22°C° 0 mm 5 m/s 671 mmHg 21%
    10:00 +27°C° 0 mm 6 m/s 672 mmHg 16%
    11:00 +29°C° 0 mm 5 m/s 672 mmHg 14%
    12:00 +30°C° 0 mm 4 m/s 671 mmHg 12%
    13:00 +33°C° 0 mm 4 m/s 671 mmHg 11%
    14:00 +33°C° 0 mm 3 m/s 670 mmHg 10%
    15:00 +33°C° 0 mm 3 m/s 670 mmHg 10%
    16:00 +32°C° 0 mm 2 m/s 669 mmHg 9%
    17:00 +29°C° 0 mm 2 m/s 669 mmHg 12%
    18:00 +26°C° 0 mm 2 m/s 669 mmHg 14%
    19:00 +23°C° 0 mm 2 m/s 669 mmHg 16%
    20:00 +21°C° 0 mm 3 m/s 669 mmHg 18%
    21:00 +20°C° 0 mm 3 m/s 669 mmHg 20%
    22:00 +19°C° 0 mm 3 m/s 669 mmHg 22%
    23:00 +18°C° 0 mm 3 m/s 669 mmHg 24%

    28 Iulie, Vineri

    Timp Temperatura Precipitaţii Vânt Presiune Umiditate
    00:00 +18°C° 0 mm 3 m/s 669 mmHg 26%
    01:00 +18°C° 0 mm 3 m/s 669 mmHg 28%
    02:00 +17°C° 0 mm 3 m/s 669 mmHg 31%
    03:00 +16°C° 0 mm 3 m/s 668 mmHg 33%
    04:00 +16°C° 0 mm 3 m/s 668 mmHg 35%
    05:00 +14°C° 0 mm 3 m/s 669 mmHg 36%
    06:00 +14°C° 0 mm 3 m/s 669 mmHg 37%
    07:00 +14°C° 0 mm 3 m/s 669 mmHg 38%
    08:00 +18°C° 0 mm 4 m/s 670 mmHg 33%
    09:00 +22°C° 0 mm 5 m/s 671 mmHg 28%
    10:00 +26°C° 0 mm 6 m/s 672 mmHg 22%
    11:00 +28°C° 0 mm 6 m/s 672 mmHg 19%
    12:00 +30°C° 0 mm 5 m/s 671 mmHg 17%
    13:00 +33°C° 0 mm 4 m/s 671 mmHg 14%
    14:00 +33°C° 0 mm 4 m/s 670 mmHg 14%
    15:00 +33°C° 0 mm 3 m/s 670 mmHg 13%
    16:00 +32°C° 0 mm 2 m/s 669 mmHg 12%
    17:00 +29°C° 0 mm 2 m/s 669 mmHg 15%
    18:00 +26°C° 0 mm 2 m/s 669 mmHg 18%
    19:00 +23°C° 0 mm 2 m/s 669 mmHg 20%
    20:00 +21°C° 0 mm 2 m/s 669 mmHg 22%
    21:00 +20°C° 0 mm 2 m/s 669 mmHg 23%
    22:00 +19°C° 0 mm 3 m/s 669 mmHg 25%
    23:00 +18°C° 0 mm 3 m/s 669 mmHg 27%

    29 Iulie, Sâmbătă

    Timp Temperatura Precipitaţii Vânt Presiune Umiditate
    00:00 +18°C° 0 mm 3 m/s 669 mmHg 29%
    01:00 +17°C° 0 mm 3 m/s 669 mmHg 32%
    02:00 +16°C° 0 mm 3 m/s 669 mmHg 34%
    03:00 +16°C° 0 mm 3 m/s 669 mmHg 37%
    04:00 +15°C° 0 mm 4 m/s 669 mmHg 39%
    05:00 +14°C° 0 mm 4 m/s 669 mmHg 40%
    06:00 +14°C° 0 mm 3 m/s 670 mmHg 42%
    07:00 +14°C° 0 mm 3 m/s 671 mmHg 43%
    08:00 +18°C° 0 mm 4 m/s 671 mmHg 36%
    09:00 +22°C° 0 mm 5 m/s 672 mmHg 29%
    10:00 +26°C° 0 mm 6 m/s 673 mmHg 22%
    11:00 +28°C° 0 mm 5 m/s 672 mmHg 20%
    12:00 +29°C° 0 mm 4 m/s 672 mmHg 17%
    13:00 +32°C° 0 mm 4 m/s 671 mmHg 15%
    14:00 +31°C° 0 mm 3 m/s 671 mmHg 14%
    15:00 +31°C° 0 mm 3 m/s 670 mmHg 14%
    16:00 +31°C° 0 mm 2 m/s 670 mmHg 13%
    17:00 +29°C° 0 mm 2 m/s 670 mmHg 16%
    18:00 +26°C° 0 mm 2 m/s 669 mmHg 19%
    19:00 +23°C° 0 mm 2 m/s 669 mmHg 21%
    20:00 +21°C° 0 mm 2 m/s 669 mmHg 23%
    21:00 +20°C° 0 mm 2 m/s 670 mmHg 24%
    22:00 +19°C° 0 mm 2 m/s 670 mmHg 25%
    23:00 +18°C° 0 mm 2 m/s 670 mmHg 27%
    Arată mai mult